Regional Weather Roundup
Issued by NWS

Home | Current Version | Previous Version | Graphics & Text | Print | Product List | Glossary On
Versions: 1 2 3 4 5 6 7 8 9 10 11 12 13 14 15 16 17 18 19 20 21 22 23 24 25 26 27 28 29 30 31 32 33 34 35 36 37 38 39 40 41 42 43 44 45 46 47 48 49 50
000
ASUS43 KOAX 281502
RWRNE

WEATHER ROUNDUP FOR NEBRASKA
NATIONAL WEATHER SERVICE OMAHA NE
1000 AM CDT FRI AUG 28 2015

NOTES: SATELLITE DATA IS BEING USED TO AUGMENT CLOUD COVER ABOVE
       12000 FEET.
       "FAIR" INDICATES FEW OR NO CLOUDS BELOW 12,000 FEET WITH NO
       SIGNIFICANT WEATHER AND/OR OBSTRUCTIONS TO VISIBILITY.

  * THESE STATIONS DO NOT REPORT WEATHER SUCH AS RAIN...SNOW OR FOG.

NEZ001>004-019>022-054>056-281600-
NEBRASKA PANHANDLE

CITY           SKY/WX    TMP DP  RH WIND       PRES   REMARKS
SCOTTSBLUFF    SUNNY     67  53  61 W13       30.12R
ALLIANCE       SUNNY     68  54  60 NW3       30.08R
CHADRON        SUNNY     70  50  49 NW8       30.07S HAZE
KIMBALL        SUNNY     68  50  51 NW12      30.16S
SIDNEY         SUNNY     72  51  47 NW15      30.13R
$$

NEZ057>060-069>072-079>082-281600-
SOUTHWEST NEBRASKA

CITY           SKY/WX    TMP DP  RH WIND       PRES   REMARKS
NORTH PLATTE   MOSUNNY   69  63  81 NW8       29.99R
IMPERIAL       SUNNY     75  54  47 NW14      30.03S
LEXINGTON      PTSUNNY   72  67  82 NW10      29.95S
MCCOOK         SUNNY     75  59  57 NW16      29.97F
OGALLALA       SUNNY     72  56  56 NW12      30.04R
$$

NEZ005>010-023>029-035>040-094-281600-
NORTH CENTRAL NEBRASKA

CITY           SKY/WX    TMP DP  RH WIND       PRES   REMARKS
AINSWORTH      CLOUDY    67  67  98 N12       29.98R
BROKEN BOW     CLOUDY    70  65  84 NW12G20   29.94R
O`NEILL        CLOUDY    65  65  99 N13       29.93S FOG
ORD            CLOUDY    69  65  86 N10       29.90R
$$

NEZ041-046>049-061>064-073>077-083>087-281600-
SOUTH CENTRAL NEBRASKA

CITY           SKY/WX    TMP DP  RH WIND       PRES   REMARKS
GRAND ISLAND   CLOUDY    72  64  76 N13       29.90R
AURORA         CLOUDY    71  67  88 N13       29.89R
HASTINGS       CLOUDY    71  66  84 NW10      29.91R
HEBRON         CLOUDY    73  67  79 W6        29.88S
HOLDREGE       PTSUNNY   71  64  81 NW6       29.94R
KEARNEY *      CLOUDY    72  63  73 NW13      29.93R
YORK           CLOUDY    70  66  88 NW8       29.87R
$$

NEZ011>018-030>034-042>045-281600-
NORTHEAST NEBRASKA

CITY           SKY/WX    TMP DP  RH WIND       PRES   REMARKS
NORFOLK        CLOUDY    68  65  90 N12       29.85R
ALBION         PTSUNNY   70  64  81 N14       29.88R
BLAIR          CLOUDY    69  65  87 S12       29.82R
COLUMBUS *     CLOUDY    72  63  73 NW12G17   29.85R
FREMONT        CLOUDY    73  68  85 S8        29.81S
TEKAMAH        CLOUDY    71  68  90 S8        29.80S
WAYNE          CLOUDY    67  65  95 N9        29.85R
$$

NEZ050>053-065>068-078-088>093-281600-
SOUTHEAST NEBRASKA

CITY           SKY/WX    TMP DP  RH WIND       PRES   REMARKS
LINCOLN        CLOUDY    75  68  78 SW14      29.83F
OMAHA EPPLEY   CLOUDY    71  67  87 S13       29.82F
BEATRICE       CLOUDY    74  66  77 S13       29.86S
FALLS CITY     CLOUDY    72  66  81 S12       29.88F
NEBRASKA CITY  PTSUNNY   71  69  93 S13       29.86F
PLATTSMOUTH    CLOUDY    70  66  86 SE10      29.84F
$$

NEZ044-045-051>053-067-281600-
OMAHA AREA

CITY           SKY/WX    TMP DP  RH WIND       PRES   REMARKS
OMAHA EPPLEY   CLOUDY    71  67  87 S13       29.82F
BLAIR          CLOUDY    69  65  87 S12       29.82R
FREMONT        CLOUDY    73  68  85 S8        29.81S
MILLARD        CLOUDY    72  67  85 SE7       29.82F
OFFUTT AFB     CLOUDY    70  66  89 SE12      29.82F
PLATTSMOUTH    CLOUDY    70  66  86 SE10      29.84F
WAHOO          CLOUDY    72  69  88 S7        29.82R
$$



USA.gov is the U.S. government's official web portal to all federal, state and local government web resources and services.